DW4678 Weather Reports


Display with metric or nautical units.
time (UTC)temp
F
wind
direction
speed
MPH
gust
MPH
rain 1hr
in
rain 24hr
in
rain mn
in
humidity
%
barometer
mb
20210922154615 74 162 18.0 0.0 0.00 0.00 0.00 87 1023.0
20210922153101 74 158 17.0 0.0 0.00 0.00 0.00 87 1023.1
20210922151633 74 163 18.0 0.0 0.00 0.00 0.00 87 1023.3
20210922150043 74 159 19.0 0.0 0.00 0.00 0.00 87 1023.4
20210922144514 74 163 19.0 0.0 0.00 0.00 0.00 87 1023.5
20210922143128 73 152 17.0 0.0 0.00 0.00 0.00 87 1023.5
20210922141617 73 159 18.0 0.0 0.00 0.00 0.00 87 1023.7
20210922140043 73 155 17.0 0.0 0.00 0.00 0.00 88 1023.8
20210922134507 73 141 17.0 0.0 0.00 0.00 0.00 89 1023.8
20210922133003 73 154 16.0 0.0 0.00 0.00 0.00 89 1023.9
20210922131638 73 160 15.0 0.0 0.00 0.00 0.00 89 1023.9
20210922130100 72 149 16.0 0.0 0.00 0.00 0.00 90 1023.8
20210922124521 72 151 16.0 0.0 0.00 0.00 0.00 91 1023.9
20210922121721 72 131 17.0 0.0 0.00 0.00 0.00 91 1023.8
20210922120049 71 140 17.0 0.0 0.00 0.00 0.00 92 1023.8
20210922114548 71 146 17.0 0.0 0.00 0.00 0.00 92 1024.0
20210922113011 71 144 17.0 0.0 0.00 0.00 0.00 92 1024.0
20210922110229 71 152 17.0 0.0 0.00 0.00 0.00 92 1023.9
20210922104533 71 148 17.0 0.0 0.00 0.00 0.00 91 1024.1
20210922103018 71 148 16.0 0.0 0.00 0.00 0.00 91 1024.1
20210922101536 71 158 15.0 0.0 0.00 0.00 0.00 91 1024.2
20210922094702 71 147 17.0 0.0 0.00 0.00 0.00 91 1024.2
20210922093146 71 151 18.0 0.0 0.00 0.00 0.00 90 1024.3
20210922091629 71 159 18.0 0.0 0.00 0.00 0.00 90 1024.5
20210922090040 71 147 16.0 0.0 0.00 0.00 0.00 90 1024.5
20210922084528 71 145 17.0 0.0 0.00 0.00 0.00 90 1024.7
20210922083028 71 144 16.0 0.0 0.00 0.00 0.00 90 1024.6
20210922081503 71 154 15.0 0.0 0.00 0.00 0.00 91 1024.6
20210922080156 71 153 15.0 0.0 0.00 0.00 0.00 91 1024.7
20210922074730 71 153 15.0 0.0 0.00 0.00 0.00 91 1024.8
20210922073041 70 150 13.0 0.0 0.00 0.00 0.00 92 1024.7
20210922071514 70 146 15.0 0.0 0.00 0.00 0.00 92 1024.8
20210922070206 70 141 15.0 0.0 0.00 0.00 0.00 92 1024.9
20210922064602 70 140 15.0 0.0 0.00 0.00 0.00 92 1025.0
20210922063045 71 152 16.0 0.0 0.00 0.00 0.00 91 1025.1
20210922061507 70 152 16.0 0.0 0.00 0.00 0.00 92 1025.1
20210922054632 70 147 17.0 0.0 0.00 0.00 0.00 93 1025.4
20210922053052 70 156 16.0 0.0 0.00 0.00 0.00 93 1025.5
20210922051553 71 140 16.0 0.0 0.00 0.00 0.00 93 1025.6
20210922050011 71 151 18.0 0.0 0.00 0.00 0.00 93 1025.7
20210922044501 70 146 17.0 0.0 0.00 0.00 0.00 93 1025.7
20210922043116 70 160 16.0 0.0 0.00 0.00 0.00 93 1026.2
20210922041535 70 148 15.0 0.0 0.00 0.00 0.00 93 1026.1
20210922040035 70 143 17.0 0.0 0.00 0.00 0.02 93 1026.2
20210922034508 71 158 15.0 0.0 0.00 0.00 0.02 93 1026.3
20210922031714 71 149 14.0 0.0 0.00 0.00 0.02 94 1026.4
20210922030114 71 152 15.0 0.0 0.00 0.00 0.02 94 1026.7
20210922024532 71 149 13.0 0.0 0.00 0.00 0.02 94 1026.8
20210922023019 70 152 13.0 0.0 0.00 0.00 0.02 95 1026.8
20210922021730 70 159 14.0 0.0 0.00 0.00 0.02 95 1026.8
20210922020128 70 144 15.0 0.0 0.00 0.00 0.02 94 1026.8
20210922014547 70 133 17.0 0.0 0.00 0.00 0.02 94 1026.8
20210922013025 70 141 16.0 0.0 0.00 0.00 0.02 94 1026.9
20210922011522 70 137 15.0 0.0 0.00 0.00 0.02 95 1027.0
20210922010020 70 150 18.0 0.0 0.00 0.00 0.02 95 1027.1
20210922003124 70 142 15.0 0.0 0.00 0.00 0.02 95 1027.2
20210922001625 70 141 16.0 0.0 0.00 0.00 0.02 95 1027.3
20210922000005 70 142 16.0 0.0 0.00 0.00 0.02 95 1027.3
20210921233136 71 155 18.0 0.0 0.00 0.00 0.00 89 1027.4
20210921231616 72 156 14.0 0.0 0.00 0.00 0.00 87 1027.4
20210921230120 72 143 12.0 0.0 0.00 0.00 0.00 87 1027.3
20210921224534 72 142 11.0 0.0 0.00 0.00 0.00 87 1027.3
20210921223016 72 152 9.0 0.0 0.00 0.00 0.00 86 1027.4
20210921220145 73 174 10.0 0.0 0.00 0.00 0.00 84 1027.5
20210921214603 73 178 8.0 0.0 0.00 0.00 0.00 84 1027.4
20210921213042 73 175 6.0 0.0 0.00 0.00 0.00 82 1027.4
20210921211517 73 167 4.0 0.0 0.00 0.00 0.00 80 1027.5
20210921210012 73 160 5.0 0.0 0.00 0.00 0.00 81 1027.4
20210921203049 72 127 5.0 0.0 0.00 0.00 0.00 84 1027.5
20210921201536 72 129 6.0 0.0 0.00 0.00 0.00 84 1027.7
20210921200009 73 139 7.0 0.0 0.00 0.00 0.00 82 1027.7
20210921193113 73 134 4.0 0.0 0.00 0.00 0.00 82 1027.8
20210921191610 73 147 0.0 0.0 0.00 0.00 0.00 77 1028.0
20210921190033 73 150 0.0 0.0 0.00 0.00 0.00 78 1028.2
20210921184509 73 137 0.0 0.0 0.00 0.00 0.00 77 1028.3
20210921181608 73 179 0.0 0.0 0.00 0.00 0.00 75 1028.6
20210921180018 73 171 0.0 0.0 0.00 0.00 0.00 72 1028.8
20210921174636 73 106 0.0 0.0 0.00 0.00 0.00 74 1028.9
20210921173028 72 154 0.0 0.0 0.00 0.00 0.00 73 1029.1
20210921171521 72 176 6.0 0.0 0.00 0.00 0.00 77 1029.2
20210921163207 72 135 0.0 0.0 0.00 0.00 0.00 78 1029.3
20210921161555 71 109 0.0 0.0 0.00 0.00 0.00 79 1029.5
20210921160122 71 186 0.0 0.0 0.00 0.00 0.00 79 1029.6